[[{"header":{"parameterUnit":"m.s-1","parameterCategory":2,"la1":30.2992,"la2":30.254,"lo1":-89.0895,"lo2":-89.0443,"dy":0.0025,"dx":0.0025,"nx":19,"ny":19,"refTime":"2026-05-14T03:00:00:Z","depth":"0","parameterNumber":2,"parameterNumberName":"U-component_of_CURRENTS"},"data":[0,0,0,-0.0174,-0.0173,-0.0162,-0.0162,-0.0187,-0.0187,0,0,0,0,0,0,0,0,0,0,0,-0.0184,-0.0184,-0.0174,-0.0173,-0.0162,-0.0162,-0.0186,-0.0187,0,0,0,0,0,0,0,0,0,0,0,-0.0184,-0.0184,-0.0184,-0.0173,-0.0162,-0.0163,-0.0186,-0.0187,0,0,0,0,0,0,0,0,0,0,-0.0194,-0.0202,-0.0184,-0.0184,-0.0173,-0.0162,-0.0163,-0.0187,-0.0187,-0.0199,0,-0.0196,0,-0.0186,-0.0188,-0.0188,0,0,0,-0.0181,-0.0202,-0.0189,-0.0184,-0.0173,-0.0162,-0.017,-0.0187,-0.0187,-0.02,-0.0196,-0.0196,-0.0186,-0.0189,-0.0189,-0.0238,-0.0238,0,0,-0.0182,-0.0194,-0.0189,-0.0189,-0.0168,-0.017,-0.0169,-0.0187,-0.0193,-0.0196,-0.0197,-0.0187,-0.0189,-0.0189,-0.0237,-0.0238,0,0,0,-0.0178,-0.0194,-0.018,-0.0189,-0.018,-0.0169,-0.0169,-0.0193,-0.0185,-0.0197,-0.0187,-0.0189,-0.0189,-0.0237,-0.0238,-0.0271,0,0,0,-0.0179,-0.0191,-0.0181,-0.0189,-0.018,-0.0183,-0.0175,-0.0184,-0.0185,-0.0187,-0.0189,-0.0189,-0.0237,-0.0237,-0.0269,-0.0271,0,0,0,-0.0185,-0.0192,-0.0187,-0.0189,-0.0179,-0.0182,-0.0176,-0.0184,-0.0179,-0.0189,-0.019,-0.0236,-0.0237,-0.0267,-0.0268,-0.0298,0,0,0,-0.0201,-0.0216,-0.0188,-0.0198,-0.0179,-0.0191,-0.0175,-0.019,-0.02,-0.0189,-0.0237,-0.0237,-0.0267,-0.0267,-0.0296,-0.0255,-0.0259,0,0,-0.0232,-0.022,-0.0224,-0.0198,-0.0211,-0.0193,-0.0226,-0.023,-0.0217,-0.0234,-0.0235,-0.0269,-0.0268,-0.0297,-0.0303,-0.0306,0,0,0,-0.0241,-0.0244,-0.0245,-0.0239,-0.0235,-0.0242,-0.0246,-0.0251,-0.0264,-0.0224,-0.0277,-0.0275,-0.0293,-0.0265,-0.0267,-0.0294,-0.0241,-0.0241,-0.0241,-0.0314,-0.0287,-0.0295,-0.0271,-0.028,-0.0286,-0.0301,-0.0307,-0.0299,-0.031,-0.0309,-0.0359,-0.0331,-0.0332,-0.0361,-0.0322,-0.0322,-0.0323,-0.0323,-0.0354,-0.0346,-0.0319,-0.0314,-0.0308,-0.0328,-0.0346,-0.0347,-0.0377,-0.035,-0.0367,-0.0308,-0.0336,-0.0366,-0.0325,-0.0324,-0.0324,-0.0324,-0.0324,-0.0393,-0.0381,-0.0365,-0.0346,-0.034,-0.0338,-0.0353,-0.0373,-0.0392,-0.0412,-0.0381,-0.038,-0.04,-0.0423,-0.0423,-0.0423,-0.0423,-0.0423,-0.0424,-0.0433,-0.0414,-0.0404,-0.0374,-0.0352,-0.0338,-0.0354,-0.0373,-0.0399,-0.0407,-0.0407,-0.042,-0.039,-0.0379,-0.0426,-0.0425,-0.0425,-0.0425,-0.0425,-0.0459,-0.0455,-0.0438,-0.0415,-0.0357,-0.0323,-0.0336,-0.035,-0.0389,-0.0393,-0.0436,-0.0409,-0.0393,-0.039,-0.0379,-0.0423,-0.0423,-0.0423,-0.0423,-0.0481,-0.0477,-0.0454,-0.0419,-0.0372,-0.0318,-0.0295,-0.0312,-0.0382,-0.0423,-0.0453,-0.0427,-0.0426,-0.041,-0.0407,-0.0396,-0.0444,-0.0444,-0.0444,-0.049,-0.0482,-0.0468,-0.0431,-0.0365,-0.0305,-0.0259,-0.0293,-0.0407,-0.0451,-0.0505,-0.0504,-0.0471,-0.0467,-0.0444,-0.0437,-0.0418,0,0]},{"header":{"parameterUnit":"m.s-1","parameterCategory":2,"la1":30.2992,"la2":30.254,"lo1":-89.0895,"lo2":-89.0443,"dy":0.0025,"dx":0.0025,"nx":19,"ny":19,"refTime":"2026-05-14T03:00:00:Z","depth":"0","parameterNumber":3,"parameterNumberName":"V-component_of_CURRENTS"},"data":[0,0,0,-0.1229,-0.1229,-0.1176,-0.1176,-0.1018,-0.1016,0,0,0,0,0,0,0,0,0,0,0,-0.1243,-0.1244,-0.1229,-0.1229,-0.1176,-0.1176,-0.1018,-0.1016,0,0,0,0,0,0,0,0,0,0,0,-0.1243,-0.1244,-0.1244,-0.1229,-0.1176,-0.1176,-0.1018,-0.1075,0,0,0,0,0,0,0,0,0,0,-0.1135,-0.1172,-0.1243,-0.1244,-0.1229,-0.1177,-0.1176,-0.1079,-0.1071,-0.1023,0,-0.103,0,-0.1029,-0.1006,-0.1005,0,0,0,-0.1206,-0.1178,-0.1166,-0.1244,-0.1228,-0.1177,-0.1194,-0.1075,-0.1067,-0.1013,-0.1028,-0.1022,-0.1026,-0.1005,-0.1004,-0.0911,-0.0911,0,0,-0.1209,-0.1223,-0.1173,-0.1162,-0.1232,-0.1195,-0.1192,-0.1071,-0.1066,-0.1027,-0.1019,-0.1023,-0.1004,-0.1003,-0.091,-0.0911,0,0,0,-0.1233,-0.1226,-0.1218,-0.1168,-0.1171,-0.1194,-0.1191,-0.1071,-0.107,-0.1018,-0.1022,-0.1003,-0.1001,-0.091,-0.0911,-0.0982,0,0,0,-0.1233,-0.1241,-0.122,-0.1226,-0.1175,-0.1134,-0.1194,-0.1078,-0.1065,-0.1022,-0.1003,-0.0999,-0.091,-0.091,-0.0979,-0.103,0,0,0,-0.1243,-0.1242,-0.1242,-0.1228,-0.1216,-0.1137,-0.1128,-0.1076,-0.1068,-0.1005,-0.0999,-0.091,-0.091,-0.0977,-0.1026,-0.1024,0,0,0,-0.1249,-0.1268,-0.1243,-0.1264,-0.1217,-0.1217,-0.1129,-0.111,-0.1068,-0.1002,-0.091,-0.0911,-0.0977,-0.1023,-0.1022,-0.1067,-0.108,0,0,-0.1279,-0.1272,-0.1286,-0.1263,-0.1282,-0.1221,-0.1207,-0.1113,-0.1049,-0.0939,-0.0937,-0.098,-0.1025,-0.1024,-0.1088,-0.1102,0,0,0,-0.13,-0.1306,-0.131,-0.1312,-0.1302,-0.1276,-0.1193,-0.1139,-0.1048,-0.103,-0.0968,-0.0994,-0.0991,-0.1012,-0.1023,-0.091,-0.0912,-0.0912,-0.0912,-0.1336,-0.1335,-0.1355,-0.1349,-0.1349,-0.1296,-0.126,-0.1165,-0.1089,-0.1063,-0.1042,-0.108,-0.1105,-0.1113,-0.0996,-0.1019,-0.102,-0.102,-0.102,-0.1368,-0.137,-0.1377,-0.1393,-0.1378,-0.1359,-0.1283,-0.1229,-0.1144,-0.1091,-0.1083,-0.1075,-0.1129,-0.1,-0.1024,-0.1024,-0.1023,-0.1023,-0.1022,-0.1372,-0.1372,-0.1387,-0.1403,-0.141,-0.1382,-0.1354,-0.129,-0.122,-0.1217,-0.1192,-0.1191,-0.1084,-0.1192,-0.1193,-0.1193,-0.1193,-0.1193,-0.1193,-0.1356,-0.1374,-0.1387,-0.1405,-0.1412,-0.1414,-0.1384,-0.136,-0.1327,-0.1284,-0.1283,-0.1088,-0.1132,-0.1133,-0.1197,-0.1196,-0.1196,-0.1195,-0.1195,-0.1328,-0.135,-0.1365,-0.1377,-0.1398,-0.141,-0.1405,-0.1425,-0.1402,-0.1412,-0.121,-0.1299,-0.1276,-0.1267,-0.127,-0.1365,-0.1365,-0.1365,-0.1365,-0.1305,-0.1318,-0.1344,-0.1361,-0.1379,-0.1403,-0.1427,-0.1451,-0.1373,-0.1292,-0.1214,-0.1172,-0.117,-0.1136,-0.113,-0.1128,-0.1185,-0.1185,-0.1184,-0.1275,-0.1296,-0.1303,-0.1344,-0.137,-0.1403,-0.1419,-0.1439,-0.1317,-0.1161,-0.1047,-0.1055,-0.0974,-0.098,-0.0909,-0.091,-0.0899,0,0]}],[{"header":{"parameterUnit":"m.s-1","parameterCategory":2,"la1":30.2992,"la2":30.254,"lo1":-89.0895,"lo2":-89.0443,"dy":0.0025,"dx":0.0025,"nx":19,"ny":19,"refTime":"2026-05-14T03:00:00:Z","depth":"2","parameterNumber":2,"parameterNumberName":"U-component_of_CURRENTS"},"data":[0,0,0,-0.0885,-0.0883,-0.0812,-0.0812,-0.0802,-0.0802,0,0,0,0,0,0,0,0,0,0,0,-0.0901,-0.09,-0.0885,-0.0883,-0.0813,-0.0812,-0.0801,-0.0802,0,0,0,0,0,0,0,0,0,0,0,-0.0901,-0.0901,-0.09,-0.0883,-0.0813,-0.0812,-0.0801,-0.0833,0,0,0,0,0,0,0,0,0,0,-0.089,-0.0881,-0.0901,-0.09,-0.0883,-0.0813,-0.0812,-0.0833,-0.0831,-0.086,0,-0.0846,0,-0.0834,-0.0804,-0.0804,0,0,0,-0.0873,-0.0883,-0.0884,-0.09,-0.0882,-0.0813,-0.0841,-0.0831,-0.0828,-0.0857,-0.0845,-0.0845,-0.0834,-0.0804,-0.0804,-0.0896,-0.0897,0,0,-0.0877,-0.0871,-0.0885,-0.0882,-0.0862,-0.0844,-0.0839,-0.0828,-0.0815,-0.0845,-0.0844,-0.0834,-0.0804,-0.0805,-0.0896,-0.0897,0,0,0,-0.0895,-0.0873,-0.0872,-0.0883,-0.087,-0.0842,-0.0837,-0.0815,-0.082,-0.0844,-0.0834,-0.0804,-0.0805,-0.0895,-0.0896,-0.0817,0,0,0,-0.0897,-0.0885,-0.0874,-0.0867,-0.0869,-0.0827,-0.0824,-0.082,-0.0819,-0.0834,-0.0804,-0.0805,-0.0894,-0.0895,-0.0817,-0.0865,0,0,0,-0.0904,-0.0886,-0.0881,-0.0868,-0.0845,-0.0827,-0.0829,-0.0819,-0.0814,-0.0804,-0.0805,-0.0893,-0.0895,-0.0817,-0.0864,-0.0879,0,0,0,-0.0897,-0.09,-0.088,-0.0882,-0.0846,-0.0867,-0.0828,-0.0813,-0.0805,-0.0805,-0.0894,-0.0896,-0.0817,-0.0863,-0.0878,-0.084,-0.0841,0,0,-0.0908,-0.09,-0.0908,-0.089,-0.0914,-0.0876,-0.0898,-0.0851,-0.085,-0.0899,-0.0901,-0.0817,-0.0864,-0.0878,-0.0947,-0.0945,0,0,0,-0.0918,-0.0915,-0.0922,-0.092,-0.0934,-0.0936,-0.0902,-0.0872,-0.0844,-0.0856,-0.0878,-0.0913,-0.0922,-0.0899,-0.0899,-0.0905,-0.0904,-0.0904,-0.0904,-0.09,-0.092,-0.0931,-0.0954,-0.0969,-0.0971,-0.0956,-0.0926,-0.0894,-0.0863,-0.0888,-0.0916,-0.089,-0.0889,-0.0893,-0.0893,-0.0893,-0.0893,-0.0892,-0.0914,-0.0911,-0.0932,-0.0941,-0.0965,-0.0969,-0.0975,-0.0928,-0.0924,-0.0887,-0.0896,-0.087,-0.0883,-0.0887,-0.0888,-0.0889,-0.089,-0.089,-0.089,-0.0889,-0.0891,-0.089,-0.0911,-0.0909,-0.0932,-0.0927,-0.093,-0.0901,-0.0912,-0.0905,-0.0906,-0.0875,-0.089,-0.0891,-0.0891,-0.0891,-0.0891,-0.0892,-0.0852,-0.0866,-0.0857,-0.0876,-0.0864,-0.0866,-0.0892,-0.0891,-0.091,-0.0906,-0.0905,-0.0918,-0.0918,-0.0881,-0.0896,-0.0895,-0.0894,-0.0894,-0.0894,-0.0806,-0.0813,-0.0811,-0.0808,-0.0817,-0.0799,-0.0856,-0.0854,-0.0892,-0.0896,-0.0896,-0.0895,-0.0939,-0.094,-0.0907,-0.0928,-0.0928,-0.0928,-0.0928,-0.0753,-0.0771,-0.0737,-0.0739,-0.0761,-0.0765,-0.0753,-0.0817,-0.0875,-0.0931,-0.0932,-0.0885,-0.0883,-0.0924,-0.0925,-0.0893,-0.091,-0.091,-0.091,-0.0703,-0.0707,-0.0654,-0.0671,-0.0699,-0.0701,-0.0648,-0.0766,-0.0925,-0.0913,-0.0963,-0.092,-0.0849,-0.0847,-0.0908,-0.091,-0.0858,0,0]},{"header":{"parameterUnit":"m.s-1","parameterCategory":2,"la1":30.2992,"la2":30.254,"lo1":-89.0895,"lo2":-89.0443,"dy":0.0025,"dx":0.0025,"nx":19,"ny":19,"refTime":"2026-05-14T03:00:00:Z","depth":"2","parameterNumber":3,"parameterNumberName":"V-component_of_CURRENTS"},"data":[0,0,0,0.051,0.051,0.0487,0.0486,0.0408,0.0407,0,0,0,0,0,0,0,0,0,0,0,0.05,0.05,0.051,0.0511,0.0487,0.0486,0.0408,0.0407,0,0,0,0,0,0,0,0,0,0,0,0.05,0.05,0.05,0.0511,0.0487,0.0486,0.0408,0.0433,0,0,0,0,0,0,0,0,0,0,0.046,0.0446,0.05,0.05,0.0511,0.0487,0.0486,0.0435,0.0431,0.0411,0,0.0408,0,0.0422,0.0403,0.0402,0,0,0,0.049,0.0449,0.0468,0.05,0.0511,0.0487,0.0492,0.0433,0.043,0.0407,0.0407,0.0405,0.042,0.0402,0.0402,0.0333,0.0333,0,0,0.0492,0.0469,0.0471,0.0466,0.0504,0.0493,0.0491,0.0431,0.0411,0.0407,0.0404,0.0419,0.0402,0.0401,0.0333,0.0333,0,0,0,0.0509,0.047,0.049,0.0468,0.0477,0.0493,0.0491,0.0413,0.0427,0.0403,0.0418,0.0401,0.0401,0.0333,0.0333,0.0213,0,0,0,0.0509,0.0483,0.0491,0.0474,0.0479,0.0448,0.0473,0.043,0.0425,0.0418,0.0401,0.04,0.0334,0.0333,0.0217,0.0278,0,0,0,0.0501,0.0481,0.0485,0.0473,0.0478,0.045,0.0458,0.043,0.0435,0.0402,0.04,0.0334,0.0333,0.022,0.028,0.0273,0,0,0,0.0472,0.0463,0.0483,0.0465,0.0478,0.0458,0.0459,0.0423,0.0391,0.0401,0.0334,0.0333,0.0221,0.0282,0.0275,0.0245,0.0236,0,0,0.0451,0.0459,0.045,0.047,0.0449,0.046,0.041,0.0371,0.0377,0.0347,0.0346,0.0215,0.0281,0.0274,0.0211,0.0203,0,0,0,0.0438,0.0429,0.0423,0.0414,0.0414,0.0397,0.0367,0.0327,0.0261,0.0363,0.0237,0.0286,0.0283,0.0268,0.0261,0.033,0.033,0.033,0.033,0.036,0.0379,0.0355,0.0369,0.0353,0.0336,0.0299,0.0252,0.0223,0.0167,0.0197,0.0144,0.0121,0.0118,0.0152,0.0151,0.0151,0.015,0.015,0.0316,0.0302,0.0313,0.0299,0.0298,0.0258,0.0208,0.017,0.0117,0.0104,0.0102,0.0157,0.0104,0.0141,0.0143,0.0144,0.0145,0.0146,0.0146,0.0253,0.0256,0.025,0.0234,0.0215,0.0207,0.0163,0.0138,0.0084,0.0076,0.009,0.0092,0.012,0.005,0.005,0.005,0.005,0.005,0.0051,0.0193,0.0199,0.0165,0.0167,0.0143,0.0131,0.0132,0.0105,0.0086,0.0061,0.0059,0.0114,0.0117,0.0119,0.0053,0.0053,0.0052,0.0052,0.0052,0.0133,0.0124,0.0078,0.0051,0.0023,-0.0009,0.0039,0.0031,0.0036,0.0028,0.0036,0.0035,0.0104,0.0109,0.0114,0.0052,0.0052,0.0052,0.0052,0.0077,0.0078,-0.0008,-0.0063,-0.0102,-0.0084,-0.0113,0.0039,0.0122,0.0249,0.0242,0.0224,0.0217,0.0295,0.0296,0.0306,0.0295,0.0296,0.0297,0.0035,0.0012,-0.0067,-0.012,-0.0174,-0.0183,-0.0194,0.0125,0.0481,0.0319,0.0415,0.0043,-0.0009,-0.0009,0.0093,0.0101,0.0111,0,0]}],[{"header":{"parameterUnit":"m.s-1","parameterCategory":2,"la1":30.2992,"la2":30.254,"lo1":-89.0895,"lo2":-89.0443,"dy":0.0025,"dx":0.0025,"nx":19,"ny":19,"refTime":"2026-05-14T03:00:00:Z","depth":"4","parameterNumber":2,"parameterNumberName":"U-component_of_CURRENTS"},"data":[0,0,0,-0.0878,-0.0881,-0.0939,-0.0939,-0.128,-0.1284,0,0,0,0,0,0,0,0,0,0,0,-0.0848,-0.0849,-0.0878,-0.0881,-0.0939,-0.0939,-0.1279,-0.1284,0,0,0,0,0,0,0,0,0,0,0,-0.0848,-0.0849,-0.085,-0.0881,-0.0939,-0.0939,-0.1278,-0.1159,0,0,0,0,0,0,0,0,0,0,-0.1066,-0.0978,-0.0849,-0.085,-0.0882,-0.094,-0.0939,-0.115,-0.1167,-0.134,0,-0.1364,0,-0.1364,-0.1316,-0.1318,0,0,0,-0.0845,-0.0962,-0.1026,-0.085,-0.0883,-0.094,-0.0903,-0.1157,-0.1176,-0.1364,-0.1369,-0.138,-0.1369,-0.1319,-0.1322,-0.1711,-0.1711,0,0,-0.0842,-0.082,-0.1012,-0.1038,-0.0928,-0.0901,-0.0905,-0.1165,-0.1179,-0.137,-0.1387,-0.1375,-0.1322,-0.1326,-0.171,-0.1711,0,0,0,-0.0857,-0.0817,-0.0865,-0.1026,-0.1033,-0.0904,-0.0908,-0.1164,-0.1195,-0.139,-0.1379,-0.1325,-0.1331,-0.1709,-0.171,-0.167,0,0,0,-0.0853,-0.0829,-0.0865,-0.0846,-0.1027,-0.1057,-0.0902,-0.1174,-0.1204,-0.1377,-0.1325,-0.1336,-0.1709,-0.171,-0.167,-0.1555,0,0,0,-0.084,-0.0826,-0.085,-0.0845,-0.0892,-0.1051,-0.109,-0.1178,-0.1202,-0.1318,-0.1337,-0.1708,-0.171,-0.1669,-0.1558,-0.1442,0,0,0,-0.079,-0.0822,-0.085,-0.0886,-0.0893,-0.0929,-0.1086,-0.1149,-0.1233,-0.1328,-0.1709,-0.171,-0.1669,-0.156,-0.1446,-0.1327,0,0,0,-0.0801,-0.0822,-0.0846,-0.0874,-0.0901,-0.0917,-0.0956,-0.1156,-0.133,-0.1636,-0.1642,-0.167,-0.1559,-0.1443,-0.1425,0,0,0,0,-0.083,-0.0847,-0.0858,-0.0888,-0.0919,-0.0906,-0.1052,-0.1174,-0.1454,-0.1399,-0.1714,-0.1643,-0.1571,-0.1518,-0.1718,-0.1718,-0.1718,-0.1717,-0.1717,-0.0771,-0.0816,-0.0835,-0.0878,-0.0884,-0.0942,-0.0993,-0.1204,-0.1422,-0.1561,-0.1648,-0.1571,-0.1526,-0.1743,-0.1742,-0.1742,-0.1742,-0.1742,-0.1742,-0.0762,-0.0775,-0.081,-0.0847,-0.0851,-0.0883,-0.1036,-0.118,-0.1428,-0.1623,-0.1558,-0.1529,-0.1739,-0.174,-0.174,-0.174,-0.1741,-0.1741,-0.1741,-0.0697,-0.0715,-0.0759,-0.0801,-0.0817,-0.0863,-0.0924,-0.1113,-0.132,-0.1359,-0.1308,-0.1489,-0.1442,-0.1379,-0.1378,-0.1377,-0.1376,-0.1375,-0.1375,-0.0613,-0.0662,-0.0684,-0.0751,-0.0778,-0.0809,-0.0898,-0.0948,-0.1085,-0.1168,-0.1349,-0.1445,-0.1457,-0.142,-0.136,-0.1362,-0.1364,-0.1366,-0.1367,-0.0561,-0.0575,-0.0602,-0.0637,-0.0715,-0.0749,-0.0805,-0.0764,-0.0781,-0.0766,-0.1042,-0.1063,-0.1023,-0.1043,-0.099,-0.08,-0.0798,-0.0796,0,-0.0498,-0.0517,-0.0519,-0.0551,-0.06,-0.0692,-0.066,-0.0664,-0.0701,-0.0708,-0.0814,-0.113,-0.1145,-0.1111,-0.1126,-0.1068,0,0,0,-0.0465,-0.0464,-0.0438,-0.0476,-0.054,-0.0585,-0.0644,-0.0606,-0.073,-0.0612,-0.0747,-0.076,-0.1122,-0.1316,-0.13,-0.1315,-0.1251,0,0]},{"header":{"parameterUnit":"m.s-1","parameterCategory":2,"la1":30.2992,"la2":30.254,"lo1":-89.0895,"lo2":-89.0443,"dy":0.0025,"dx":0.0025,"nx":19,"ny":19,"refTime":"2026-05-14T03:00:00:Z","depth":"4","parameterNumber":3,"parameterNumberName":"V-component_of_CURRENTS"},"data":[0,0,0,0.0054,0.0054,-0.0015,-0.0015,0.0029,0.003,0,0,0,0,0,0,0,0,0,0,0,0.0071,0.0071,0.0054,0.0054,-0.0015,-0.0015,0.0028,0.003,0,0,0,0,0,0,0,0,0,0,0,0.0071,0.0071,0.0071,0.0053,-0.0015,-0.0015,0.0028,0.004,0,0,0,0,0,0,0,0,0,0,0.0086,0.0086,0.0071,0.0071,0.0053,-0.0014,-0.0016,0.0038,0.0039,0.0107,0,0.0109,0,0.0092,0.0039,0.0039,0,0,0,0.0023,0.0085,0.0084,0.0071,0.0053,-0.0014,0.0007,0.0037,0.0038,0.0109,0.0109,0.011,0.0093,0.0039,0.004,0.014,0.014,0,0,0.0026,0.0042,0.0083,0.0085,0.0057,0.001,0.0006,0.0036,0.0041,0.0109,0.0111,0.0094,0.004,0.0041,0.014,0.014,0,0,0,0.0058,0.0045,0.0038,0.0084,0.0073,0.0009,0.0004,0.0038,0.0041,0.0111,0.0094,0.0041,0.0043,0.014,0.014,0.0105,0,0,0,0.0059,0.0066,0.004,0.0046,0.0072,0.0036,0.0005,0.0037,0.0041,0.0094,0.0041,0.0044,0.014,0.014,0.0106,0.0023,0,0,0,0.007,0.0066,0.0067,0.0048,0.0034,0.0035,0.0035,0.0036,0.0034,0.0039,0.0044,0.0139,0.014,0.0106,0.0027,0.006,0,0,0,0.0074,0.0048,0.0068,0.0021,0.0035,-0.0063,0.0034,-0.0029,-0.0041,0.0042,0.014,0.014,0.0106,0.0029,0.0061,0.0169,0,0,0,0.0034,0.0044,0.0008,0.0024,-0.0063,-0.0057,-0.0157,-0.0114,0.0003,0.0134,0.0135,0.0105,0.0027,0.006,0.0184,0,0,0,0,-0.0012,-0.0028,-0.0056,-0.0095,-0.0149,-0.0196,-0.0195,-0.014,0.0,0.0009,0.0121,0.0071,0.0094,0.0162,0.0141,0.0141,0.0141,0.0141,0.0141,-0.003,-0.0075,-0.0141,-0.0197,-0.0253,-0.0304,-0.0313,-0.0214,-0.0092,-0.0004,0.0057,0.0065,0.0138,0.011,0.011,0.0109,0.0109,0.0109,0.0109,-0.0086,-0.0124,-0.0185,-0.0259,-0.0311,-0.0382,-0.0359,-0.0278,-0.011,0.0001,0.003,0.0136,0.0106,0.0107,0.0107,0.0108,0.0108,0.0108,0.0108,-0.0077,-0.0106,-0.0149,-0.0246,-0.0326,-0.0393,-0.0377,-0.0309,-0.0158,-0.0108,0.0078,0.0038,0.0027,-0.0004,-0.0004,-0.0004,-0.0004,-0.0004,-0.0005,-0.0038,-0.0092,-0.0135,-0.0231,-0.0281,-0.0335,-0.0341,-0.0268,-0.0162,0.0002,-0.0067,0.0026,0.003,0.0021,-0.0008,-0.0007,-0.0007,-0.0006,-0.0006,-0.0042,-0.0038,-0.0099,-0.0144,-0.0251,-0.0283,-0.0309,-0.0164,-0.0052,0.007,0.0076,0.0073,0.0091,0.0093,0.0087,0.0077,0.0078,0.0079,0,-0.0016,-0.0029,-0.0078,-0.0134,-0.019,-0.0259,-0.012,-0.005,0.004,0.0042,-0.0052,-0.0057,-0.0053,-0.0043,-0.0039,-0.0051,0,0,0,-0.0018,-0.0026,-0.0048,-0.0104,-0.0175,-0.0113,-0.0089,-0.0012,0.001,0.016,0.0111,0.0102,0.0049,-0.0017,0.0004,0.0008,-0.0005,0,0]}]]